| time (UTC) | temp F | wind direction | speed MPH | gust MPH | rain 1hr in | rain 24hr in | rain mn in | humidity % | barometer mb |
| 20260508035844 | 54 | 29 | 0.0 | 0.0 | 0.00 | 0.00 | 0.00 | 99 | 1014.9 |
| 20260508035341 | 54 | 29 | 0.0 | 0.0 | 0.00 | 0.00 | 0.00 | 99 | 1014.8 |
| 20260508034838 | 54 | 29 | 0.0 | 0.0 | 0.00 | 0.00 | 0.00 | 99 | 1015.2 |
| 20260508034336 | 54 | 29 | 0.0 | 0.0 | 0.00 | 0.00 | 0.00 | 99 | 1014.9 |
| 20260508033832 | 54 | 29 | 0.0 | 0.0 | 0.00 | 0.00 | 0.00 | 99 | 1014.6 |
| 20260508033331 | 54 | 29 | 0.0 | 0.0 | 0.00 | 0.00 | 0.00 | 99 | 1014.5 |
| 20260508032828 | 54 | 29 | 0.0 | 0.0 | 0.00 | 0.00 | 0.00 | 99 | 1014.3 |
| 20260508032325 | 54 | 29 | 0.0 | 0.0 | 0.00 | 0.00 | 0.00 | 99 | 1014.4 |
| 20260508031821 | 54 | 29 | 0.0 | 1.0 | 0.00 | 0.00 | 0.00 | 99 | 1014.2 |
| 20260508031318 | 54 | 31 | 0.0 | 0.0 | 0.00 | 0.00 | 0.00 | 99 | 1014.3 |
| 20260508030814 | 54 | 31 | 0.0 | 0.0 | 0.00 | 0.00 | 0.00 | 99 | 1014.4 |
| 20260508030312 | 54 | 31 | 0.0 | 0.0 | 0.00 | 0.00 | 0.00 | 99 | 1014.4 |
| 20260508025808 | 54 | 31 | 0.0 | 0.0 | 0.00 | 0.00 | 0.00 | 99 | 1014.5 |
| 20260508025306 | 54 | 31 | 0.0 | 0.0 | 0.00 | 0.00 | 0.00 | 99 | 1014.2 |
| 20260508024801 | 54 | 30 | 0.0 | 0.0 | 0.00 | 0.00 | 0.00 | 99 | 1014.1 |
| 20260508024258 | 54 | 30 | 0.0 | 0.0 | 0.00 | 0.00 | 0.00 | 99 | 1014.2 |
| 20260508023756 | 54 | 30 | 0.0 | 0.0 | 0.00 | 0.00 | 0.00 | 99 | 1014.2 |
| 20260508023253 | 54 | 30 | 0.0 | 0.0 | 0.00 | 0.00 | 0.00 | 99 | 1014.2 |
| 20260508022748 | 54 | 33 | 0.0 | 0.0 | 0.00 | 0.00 | 0.00 | 99 | 1013.7 |
| 20260508022245 | 54 | 33 | 0.0 | 0.0 | 0.00 | 0.00 | 0.00 | 99 | 1013.9 |
| 20260508021742 | 54 | 33 | 0.0 | 0.0 | 0.00 | 0.00 | 0.00 | 99 | 1013.7 |
| 20260508021237 | 54 | 33 | 0.0 | 0.0 | 0.00 | 0.00 | 0.00 | 99 | 1013.8 |
| 20260508020735 | 54 | 33 | 0.0 | 0.0 | 0.00 | 0.00 | 0.00 | 99 | 1013.5 |
| 20260508020232 | 55 | 34 | 0.0 | 0.0 | 0.00 | 0.00 | 0.00 | 99 | 1013.7 |
| 20260508015729 | 54 | 36 | 0.0 | 0.0 | 0.00 | 0.00 | 0.00 | 99 | 1014.0 |
| 20260508015226 | 54 | 36 | 0.0 | 0.0 | 0.00 | 0.00 | 0.00 | 99 | 1013.8 |
| 20260508014723 | 54 | 35 | 0.0 | 0.0 | 0.00 | 0.00 | 0.00 | 99 | 1013.8 |
| 20260508014220 | 54 | 34 | 0.0 | 0.0 | 0.00 | 0.00 | 0.00 | 99 | 1013.7 |
| 20260508013715 | 54 | 38 | 0.0 | 0.0 | 0.00 | 0.00 | 0.00 | 99 | 1013.6 |
| 20260508013212 | 54 | 38 | 0.0 | 0.0 | 0.00 | 0.00 | 0.00 | 99 | 1013.4 |
| 20260508012710 | 54 | 38 | 0.0 | 0.0 | 0.00 | 0.00 | 0.00 | 99 | 1013.3 |
| 20260508012206 | 54 | 38 | 0.0 | 0.0 | 0.00 | 0.00 | 0.00 | 98 | 1012.9 |
| 20260508011705 | 54 | 38 | 0.0 | 0.0 | 0.00 | 0.00 | 0.00 | 98 | 1013.0 |
| 20260508011202 | 55 | 18 | 0.0 | 0.0 | 0.00 | 0.00 | 0.00 | 98 | 1012.6 |
| 20260508010659 | 54 | 19 | 0.0 | 0.0 | 0.00 | 0.00 | 0.00 | 98 | 1012.8 |
| 20260508010157 | 55 | 353 | 0.0 | 0.0 | 0.00 | 0.00 | 0.00 | 98 | 1012.7 |
| 20260508005653 | 55 | 349 | 0.0 | 0.0 | 0.00 | 0.00 | 0.00 | 98 | 1013.3 |
| 20260508005150 | 54 | 338 | 0.0 | 0.0 | 0.00 | 0.00 | 0.00 | 98 | 1013.1 |
| 20260508004646 | 55 | 336 | 0.0 | 0.0 | 0.00 | 0.00 | 0.00 | 98 | 1013.0 |
| 20260508004142 | 55 | 336 | 0.0 | 0.0 | 0.00 | 0.00 | 0.00 | 98 | 1012.8 |
| 20260508003639 | 55 | 336 | 0.0 | 0.0 | 0.00 | 0.00 | 0.00 | 98 | 1012.5 |
| 20260508003137 | 55 | 339 | 0.0 | 0.0 | 0.00 | 0.00 | 0.00 | 98 | 1012.4 |
| 20260508002633 | 55 | 345 | 0.0 | 0.0 | 0.00 | 0.00 | 0.00 | 97 | 1012.6 |
| 20260508002131 | 55 | 336 | 0.0 | 0.0 | 0.00 | 0.00 | 0.00 | 97 | 1013.1 |
| 20260508001625 | 55 | 38 | 0.0 | 1.0 | 0.00 | 0.00 | 0.00 | 97 | 1012.9 |
| 20260508001122 | 55 | 21 | 1.0 | 1.0 | 0.00 | 0.00 | 0.00 | 97 | 1012.5 |
| 20260508000618 | 55 | 6 | 0.0 | 0.0 | 0.00 | 0.00 | 0.00 | 97 | 1012.6 |
| 20260508000116 | 55 | 297 | 0.0 | 0.0 | 0.00 | 0.00 | 0.00 | 97 | 1012.4 |
| 20260507235612 | 55 | 309 | 0.0 | 0.0 | 0.00 | 0.00 | 0.00 | 97 | 1011.8 |
| 20260507235110 | 54 | 46 | 0.0 | 0.0 | 0.00 | 0.00 | 0.00 | 97 | 1011.7 |
| 20260507234606 | 54 | 355 | 0.0 | 0.0 | 0.00 | 0.00 | 0.00 | 97 | 1011.9 |
| 20260507234102 | 55 | 19 | 0.0 | 1.0 | 0.00 | 0.00 | 0.00 | 97 | 1011.6 |
| 20260507233559 | 55 | 195 | 0.0 | 0.0 | 0.00 | 0.00 | 0.00 | 97 | 1011.9 |
| 20260507233058 | 55 | 194 | 0.0 | 0.0 | 0.00 | 0.00 | 0.00 | 97 | 1011.7 |
| 20260507232553 | 55 | 256 | 1.0 | 1.0 | 0.00 | 0.00 | 0.00 | 97 | 1011.6 |
| 20260507232051 | 55 | 287 | 0.0 | 0.0 | 0.00 | 0.00 | 0.00 | 98 | 1011.6 |
| 20260507231547 | 55 | 244 | 0.0 | 0.0 | 0.00 | 0.00 | 0.00 | 98 | 1011.7 |
| 20260507231045 | 55 | 36 | 0.0 | 0.0 | 0.00 | 0.00 | 0.00 | 98 | 1011.6 |
| 20260507230541 | 55 | 22 | 1.0 | 1.0 | 0.00 | 0.00 | 0.00 | 98 | 1012.1 |
| 20260507230038 | 55 | 10 | 1.0 | 1.0 | 0.00 | 0.00 | 0.00 | 98 | 1011.7 |
| 20260507225533 | 55 | 227 | 0.0 | 1.0 | 0.00 | 0.00 | 0.00 | 98 | 1011.5 |
| 20260507225030 | 55 | 336 | 0.0 | 1.0 | 0.00 | 0.00 | 0.00 | 98 | 1011.7 |
| 20260507224526 | 55 | 327 | 0.0 | 0.0 | 0.00 | 0.00 | 0.00 | 98 | 1011.6 |
| 20260507224022 | 55 | 58 | 0.0 | 0.0 | 0.00 | 0.00 | 0.00 | 97 | 1011.5 |
| 20260507223518 | 55 | 66 | 0.0 | 1.0 | 0.00 | 0.00 | 0.00 | 98 | 1011.2 |
| 20260507223016 | 55 | 49 | 1.0 | 2.0 | 0.00 | 0.00 | 0.00 | 98 | 1011.1 |
| 20260507222513 | 55 | 46 | 0.0 | 1.0 | 0.00 | 0.00 | 0.00 | 98 | 1011.2 |
| 20260507222009 | 55 | 3 | 1.0 | 1.0 | 0.00 | 0.00 | 0.00 | 98 | 1011.2 |
| 20260507221506 | 55 | 347 | 1.0 | 1.0 | 0.00 | 0.00 | 0.00 | 98 | 1011.3 |
| 20260507221002 | 55 | 354 | 1.0 | 2.0 | 0.00 | 0.00 | 0.00 | 97 | 1011.2 |
| 20260507220500 | 55 | 5 | 0.0 | 0.0 | 0.00 | 0.00 | 0.00 | 97 | 1011.2 |
| 20260507215956 | 55 | 352 | 1.0 | 1.0 | 0.00 | 0.00 | 0.00 | 97 | 1011.2 |
| 20260507215452 | 55 | 284 | 0.0 | 0.0 | 0.00 | 0.00 | 0.00 | 97 | 1011.6 |
| 20260507214950 | 55 | 41 | 1.0 | 1.0 | 0.00 | 0.00 | 0.00 | 97 | 1011.5 |
| 20260507214448 | 55 | 17 | 0.0 | 1.0 | 0.00 | 0.00 | 0.00 | 97 | 1011.3 |
| 20260507213943 | 55 | 46 | 0.0 | 0.0 | 0.00 | 0.00 | 0.00 | 96 | 1011.2 |
| 20260507213440 | 55 | 22 | 1.0 | 2.0 | 0.00 | 0.00 | 0.00 | 96 | 1011.5 |
| 20260507212937 | 55 | 21 | 0.0 | 0.0 | 0.00 | 0.00 | 0.00 | 97 | 1011.4 |
| 20260507212427 | 55 | 50 | 0.0 | 1.0 | 0.00 | 0.00 | 0.00 | 97 | 1011.3 |
| 20260507211924 | 55 | 11 | 0.0 | 0.0 | 0.00 | 0.00 | 0.00 | 97 | 1011.3 |
| 20260507211420 | 55 | 8 | 0.0 | 0.0 | 0.00 | 0.00 | 0.00 | 97 | 1011.3 |
| 20260507210917 | 55 | 327 | 0.0 | 0.0 | 0.00 | 0.00 | 0.00 | 97 | 1011.3 |
| 20260507210415 | 55 | 1 | 0.0 | 1.0 | 0.00 | 0.00 | 0.00 | 97 | 1011.2 |
| 20260507205911 | 55 | 27 | 0.0 | 1.0 | 0.00 | 0.00 | 0.00 | 97 | 1010.9 |
| 20260507205408 | 55 | 352 | 1.0 | 2.0 | 0.00 | 0.00 | 0.00 | 97 | 1010.6 |
| 20260507204904 | 55 | 95 | 0.0 | 1.0 | 0.00 | 0.00 | 0.00 | 98 | 1010.8 |
| 20260507204401 | 55 | 3 | 0.0 | 1.0 | 0.00 | 0.00 | 0.00 | 98 | 1010.8 |
| 20260507203858 | 56 | 54 | 2.0 | 2.0 | 0.00 | 0.00 | 0.00 | 98 | 1010.9 |
| 20260507203356 | 56 | 27 | 3.0 | 5.0 | 0.00 | 0.00 | 0.00 | 98 | 1010.7 |
| 20260507202852 | 57 | 52 | 2.0 | 3.0 | 0.00 | 0.00 | 0.00 | 99 | 1010.5 |
| 20260507202349 | 57 | 75 | 0.0 | 0.0 | 0.00 | 0.00 | 0.00 | 99 | 1010.6 |
| 20260507201844 | 57 | 345 | 0.0 | 1.0 | 0.00 | 0.00 | 0.00 | 99 | 1010.4 |
| 20260507201341 | 57 | 339 | 1.0 | 1.0 | 0.00 | 0.00 | 0.00 | 99 | 1010.7 |
| 20260507200837 | 57 | 13 | 1.0 | 2.0 | 0.00 | 0.00 | 0.00 | 99 | 1010.2 |
| 20260507200333 | 57 | 80 | 0.0 | 0.0 | 0.00 | 0.00 | 0.00 | 99 | 1010.4 |
| 20260507195829 | 57 | 7 | 0.0 | 1.0 | 0.00 | 0.00 | 0.00 | 99 | 1010.7 |
| 20260507195327 | 57 | 9 | 1.0 | 2.0 | 0.00 | 0.00 | 0.00 | 99 | 1010.5 |
| 20260507194824 | 57 | 33 | 0.0 | 1.0 | 0.00 | 0.00 | 0.00 | 99 | 1010.4 |
| 20260507194320 | 57 | 34 | 0.0 | 0.0 | 0.00 | 0.00 | 0.00 | 99 | 1010.6 |
| 20260507193816 | 57 | 20 | 1.0 | 1.0 | 0.00 | 0.00 | 0.00 | 99 | 1010.6 |
| 20260507193313 | 57 | 107 | 1.0 | 1.0 | 0.00 | 0.00 | 0.00 | 99 | 1010.5 |
| 20260507192809 | 57 | 334 | 3.0 | 3.0 | 0.00 | 0.00 | 0.00 | 99 | 1010.4 |
| 20260507192306 | 57 | 317 | 1.0 | 1.0 | 0.00 | 0.00 | 0.00 | 99 | 1010.3 |
| 20260507191802 | 57 | 254 | 1.0 | 2.0 | 0.00 | 0.00 | 0.00 | 99 | 1010.6 |
| 20260507191259 | 57 | 36 | 1.0 | 1.0 | 0.00 | 0.00 | 0.00 | 99 | 1010.6 |
| 20260507190756 | 57 | 34 | 1.0 | 1.0 | 0.00 | 0.00 | 0.00 | 99 | 1010.7 |
| 20260507190254 | 57 | 33 | 2.0 | 2.0 | 0.00 | 0.00 | 0.00 | 99 | 1010.9 |
| 20260507185753 | 58 | 329 | 1.0 | 1.0 | 0.00 | 0.00 | 0.00 | 99 | 1010.5 |
| 20260507185249 | 59 | 357 | 0.0 | 1.0 | 0.00 | 0.00 | 0.00 | 99 | 1010.3 |
| 20260507184747 | 59 | 72 | 0.0 | 0.0 | 0.00 | 0.00 | 0.00 | 99 | 1010.0 |
| 20260507184244 | 59 | 0 | 0.0 | 0.0 | 0.00 | 0.00 | 0.00 | 99 | 1009.5 |
| 20260507183741 | 59 | 4 | 1.0 | 2.0 | 0.00 | 0.00 | 0.00 | 99 | 1010.3 |
| 20260507183238 | 59 | 54 | 0.0 | 0.0 | 0.00 | 0.00 | 0.00 | 99 | 1010.6 |
| 20260507182735 | 59 | 52 | 3.0 | 3.0 | 0.00 | 0.00 | 0.00 | 99 | 1010.7 |
| 20260507182230 | 59 | 306 | 0.0 | 0.0 | 0.00 | 0.00 | 0.00 | 99 | 1010.9 |
| 20260507181728 | 60 | 353 | 1.0 | 1.0 | 0.00 | 0.00 | 0.00 | 99 | 1009.9 |
| 20260507181224 | 60 | 355 | 2.0 | 3.0 | 0.00 | 0.00 | 0.00 | 99 | 1009.7 |
| 20260507180721 | 60 | 1 | 1.0 | 2.0 | 0.00 | 0.00 | 0.00 | 99 | 1009.8 |
| 20260507180218 | 59 | 21 | 0.0 | 1.0 | 0.00 | 0.00 | 0.00 | 99 | 1010.1 |
| 20260507175713 | 59 | 326 | 0.0 | 1.0 | 0.00 | 0.00 | 0.00 | 99 | 1010.0 |
| 20260507175210 | 60 | 11 | 2.0 | 3.0 | 0.00 | 0.00 | 0.00 | 99 | 1010.2 |
| 20260507174708 | 61 | 331 | 2.0 | 2.0 | 0.00 | 0.00 | 0.00 | 99 | 1010.3 |
| 20260507174206 | 62 | 300 | 3.0 | 6.0 | 0.00 | 0.00 | 0.00 | 99 | 1010.6 |
| 20260507173703 | 67 | 359 | 1.0 | 2.0 | 0.00 | 0.00 | 0.00 | 99 | 1010.1 |
| 20260507173159 | 68 | 323 | 0.0 | 1.0 | 0.00 | 0.00 | 0.00 | 99 | 1010.2 |
| 20260507172656 | 68 | 323 | 0.0 | 0.0 | 0.00 | 0.00 | 0.00 | 99 | 1009.8 |
| 20260507172153 | 68 | 330 | 0.0 | 0.0 | 0.00 | 0.00 | 0.00 | 99 | 1009.6 |
| 20260507171652 | 68 | 332 | 0.0 | 0.0 | 0.00 | 0.00 | 0.00 | 99 | 1009.5 |
| 20260507171150 | 68 | 339 | 0.0 | 0.0 | 0.00 | 0.00 | 0.00 | 99 | 1009.3 |
| 20260507170647 | 68 | 339 | 0.0 | 0.0 | 0.00 | 0.00 | 0.00 | 99 | 1009.4 |
| 20260507170145 | 68 | 339 | 0.0 | 0.0 | 0.00 | 0.00 | 0.00 | 99 | 1009.3 |
| 20260507165640 | 68 | 339 | 0.0 | 0.0 | 0.00 | 0.00 | 0.00 | 99 | 1009.4 |
| 20260507165137 | 68 | 339 | 0.0 | 0.0 | 0.00 | 0.00 | 0.00 | 99 | 1009.6 |
| 20260507164632 | 68 | 340 | 0.0 | 0.0 | 0.00 | 0.00 | 0.00 | 99 | 1009.2 |
| 20260507164130 | 68 | 339 | 0.0 | 0.0 | 0.00 | 0.00 | 0.00 | 99 | 1009.5 |
| 20260507163627 | 68 | 2 | 0.0 | 0.0 | 0.00 | 0.00 | 0.00 | 99 | 1009.7 |
| 20260507163125 | 68 | 2 | 0.0 | 0.0 | 0.00 | 0.00 | 0.00 | 99 | 1010.1 |
| 20260507162620 | 68 | 331 | 0.0 | 0.0 | 0.00 | 0.00 | 0.00 | 99 | 1010.4 |
| 20260507162117 | 68 | 339 | 0.0 | 0.0 | 0.00 | 0.00 | 0.00 | 99 | 1010.6 |
| 20260507161613 | 68 | 300 | 0.0 | 0.0 | 0.00 | 0.00 | 0.00 | 99 | 1010.8 |
| 20260507161110 | 68 | 301 | 0.0 | 0.0 | 0.00 | 0.00 | 0.00 | 99 | 1011.0 |
| 20260507160606 | 68 | 293 | 0.0 | 0.0 | 0.00 | 0.00 | 0.00 | 99 | 1011.0 |
| 20260507155558 | 67 | 340 | 1.0 | 1.0 | 0.00 | 0.00 | 0.00 | 99 | 1011.0 |
| 20260507155055 | 67 | 342 | 0.0 | 0.0 | 0.00 | 0.00 | 0.00 | 99 | 1010.8 |
| 20260507154552 | 68 | 343 | 0.0 | 1.0 | 0.00 | 0.00 | 0.00 | 99 | 1010.8 |
| 20260507154049 | 68 | 226 | 0.0 | 1.0 | 0.00 | 0.00 | 0.00 | 99 | 1010.9 |
| 20260507153546 | 68 | 202 | 0.0 | 0.0 | 0.00 | 0.00 | 0.00 | 99 | 1010.4 |
| 20260507153042 | 68 | 202 | 0.0 | 0.0 | 0.00 | 0.00 | 0.00 | 99 | 1010.1 |
| 20260507152538 | 68 | 203 | 0.0 | 0.0 | 0.00 | 0.00 | 0.00 | 99 | 1010.5 |
| 20260507152034 | 67 | 190 | 0.0 | 0.0 | 0.00 | 0.00 | 0.00 | 99 | 1010.2 |
| 20260507151530 | 67 | 192 | 0.0 | 0.0 | 0.00 | 0.00 | 0.00 | 99 | 1010.8 |
| 20260507151028 | 67 | 196 | 0.0 | 0.0 | 0.00 | 0.00 | 0.00 | 99 | 1010.8 |
| 20260507150525 | 67 | 196 | 0.0 | 0.0 | 0.00 | 0.00 | 0.00 | 99 | 1010.7 |
| 20260507150021 | 67 | 197 | 0.0 | 0.0 | 0.00 | 0.00 | 0.00 | 99 | 1010.6 |
| 20260507145516 | 67 | 198 | 0.0 | 0.0 | 0.00 | 0.00 | 0.00 | 99 | 1010.8 |
| 20260507145014 | 67 | 253 | 0.0 | 0.0 | 0.00 | 0.00 | 0.00 | 99 | 1010.9 |
| 20260507144510 | 67 | 191 | 0.0 | 0.0 | 0.00 | 0.00 | 0.00 | 99 | 1011.0 |
| 20260507144008 | 67 | 191 | 0.0 | 0.0 | 0.00 | 0.00 | 0.00 | 99 | 1011.0 |
| 20260507143505 | 67 | 194 | 0.0 | 0.0 | 0.00 | 0.00 | 0.00 | 99 | 1011.0 |
| 20260507143002 | 67 | 194 | 2.0 | 3.0 | 0.00 | 0.00 | 0.00 | 99 | 1011.1 |
| 20260507142457 | 67 | 206 | 0.0 | 0.0 | 0.00 | 0.00 | 0.00 | 99 | 1011.0 |
| 20260507141955 | 66 | 239 | 0.0 | 0.0 | 0.00 | 0.00 | 0.00 | 99 | 1011.0 |
| 20260507141451 | 66 | 200 | 0.0 | 0.0 | 0.00 | 0.00 | 0.00 | 99 | 1011.1 |
| 20260507140947 | 66 | 203 | 0.0 | 0.0 | 0.00 | 0.00 | 0.00 | 99 | 1011.0 |
| 20260507140444 | 66 | 191 | 0.0 | 0.0 | 0.00 | 0.00 | 0.00 | 99 | 1011.0 |
| 20260507135942 | 66 | 185 | 0.0 | 0.0 | 0.00 | 0.00 | 0.00 | 99 | 1011.4 |
| 20260507135439 | 66 | 183 | 0.0 | 0.0 | 0.00 | 0.00 | 0.00 | 99 | 1011.3 |
| 20260507134936 | 66 | 185 | 0.0 | 0.0 | 0.00 | 0.00 | 0.00 | 99 | 1011.4 |
| 20260507134433 | 66 | 183 | 0.0 | 0.0 | 0.00 | 0.00 | 0.00 | 99 | 1011.4 |
| 20260507133929 | 66 | 186 | 0.0 | 0.0 | 0.00 | 0.00 | 0.00 | 99 | 1011.6 |
| 20260507133425 | 66 | 189 | 0.0 | 0.0 | 0.00 | 0.00 | 0.00 | 99 | 1011.6 |
| 20260507132924 | 66 | 185 | 0.0 | 0.0 | 0.00 | 0.00 | 0.00 | 99 | 1011.5 |
| 20260507132419 | 66 | 185 | 0.0 | 0.0 | 0.00 | 0.00 | 0.00 | 99 | 1011.4 |
| 20260507131916 | 66 | 183 | 0.0 | 0.0 | 0.00 | 0.00 | 0.00 | 99 | 1011.6 |
| 20260507131413 | 66 | 189 | 0.0 | 0.0 | 0.00 | 0.00 | 0.00 | 99 | 1011.7 |
| 20260507130910 | 66 | 188 | 0.0 | 0.0 | 0.00 | 0.00 | 0.00 | 99 | 1011.2 |
| 20260507130407 | 66 | 186 | 0.0 | 0.0 | 0.00 | 0.00 | 0.00 | 99 | 1011.3 |
| 20260507125906 | 66 | 193 | 0.0 | 0.0 | 0.00 | 0.00 | 0.00 | 99 | 1011.3 |
| 20260507125404 | 66 | 193 | 0.0 | 0.0 | 0.00 | 0.00 | 0.00 | 99 | 1011.5 |
| 20260507124901 | 66 | 196 | 0.0 | 0.0 | 0.00 | 0.00 | 0.00 | 99 | 1011.5 |
| 20260507124356 | 66 | 194 | 0.0 | 0.0 | 0.00 | 0.00 | 0.00 | 99 | 1011.4 |
| 20260507123855 | 66 | 194 | 0.0 | 0.0 | 0.00 | 0.00 | 0.00 | 99 | 1011.6 |
| 20260507123351 | 66 | 195 | 0.0 | 0.0 | 0.00 | 0.00 | 0.00 | 99 | 1011.4 |
| 20260507122848 | 66 | 195 | 0.0 | 0.0 | 0.00 | 0.00 | 0.00 | 99 | 1011.4 |
| 20260507122344 | 66 | 196 | 0.0 | 0.0 | 0.00 | 0.00 | 0.00 | 99 | 1011.4 |
| 20260507121840 | 66 | 191 | 0.0 | 0.0 | 0.00 | 0.00 | 0.00 | 99 | 1011.4 |
| 20260507121336 | 66 | 190 | 0.0 | 1.0 | 0.00 | 0.00 | 0.00 | 99 | 1011.4 |
| 20260507120832 | 66 | 191 | 0.0 | 1.0 | 0.00 | 0.00 | 0.00 | 99 | 1011.2 |
| 20260507120329 | 66 | 192 | 0.0 | 0.0 | 0.00 | 0.00 | 0.00 | 99 | 1011.4 |
| 20260507115825 | 66 | 192 | 0.0 | 0.0 | 0.00 | 0.00 | 0.00 | 99 | 1011.4 |
| 20260507115321 | 66 | 192 | 0.0 | 0.0 | 0.00 | 0.00 | 0.00 | 99 | 1011.7 |
| 20260507114817 | 65 | 192 | 0.0 | 0.0 | 0.00 | 0.00 | 0.00 | 99 | 1011.5 |
| 20260507114314 | 65 | 195 | 0.0 | 0.0 | 0.00 | 0.00 | 0.00 | 99 | 1011.8 |
| 20260507113812 | 65 | 195 | 0.0 | 0.0 | 0.00 | 0.00 | 0.00 | 99 | 1011.8 |
| 20260507113308 | 65 | 195 | 0.0 | 0.0 | 0.00 | 0.00 | 0.00 | 99 | 1012.1 |
| 20260507112806 | 65 | 195 | 0.0 | 0.0 | 0.00 | 0.00 | 0.00 | 99 | 1012.0 |
| 20260507112306 | 65 | 192 | 0.0 | 0.0 | 0.00 | 0.00 | 0.00 | 99 | 1011.8 |
| 20260507111801 | 65 | 156 | 0.0 | 0.0 | 0.00 | 0.00 | 0.00 | 99 | 1012.1 |
| 20260507111257 | 65 | 157 | 0.0 | 1.0 | 0.00 | 0.00 | 0.00 | 99 | 1011.9 |
| 20260507110753 | 65 | 156 | 0.0 | 0.0 | 0.00 | 0.00 | 0.00 | 99 | 1012.1 |
| 20260507110250 | 65 | 156 | 0.0 | 0.0 | 0.00 | 0.00 | 0.00 | 99 | 1011.9 |
| 20260507105746 | 65 | 151 | 0.0 | 0.0 | 0.00 | 0.00 | 0.00 | 99 | 1011.8 |
| 20260507105236 | 65 | 109 | 0.0 | 0.0 | 0.00 | 0.00 | 0.00 | 99 | 1011.8 |
| 20260507104734 | 65 | 109 | 0.0 | 0.0 | 0.00 | 0.00 | 0.00 | 99 | 1011.6 |
| 20260507104231 | 65 | 109 | 0.0 | 0.0 | 0.00 | 0.00 | 0.00 | 99 | 1011.7 |
| 20260507103726 | 65 | 109 | 0.0 | 0.0 | 0.00 | 0.00 | 0.00 | 99 | 1011.5 |
| 20260507103223 | 65 | 109 | 0.0 | 0.0 | 0.00 | 0.00 | 0.00 | 99 | 1011.6 |
| 20260507102719 | 65 | 103 | 0.0 | 0.0 | 0.00 | 0.00 | 0.00 | 99 | 1011.7 |
| 20260507102216 | 65 | 102 | 0.0 | 0.0 | 0.00 | 0.00 | 0.00 | 99 | 1011.6 |
| 20260507101712 | 65 | 104 | 0.0 | 0.0 | 0.00 | 0.00 | 0.00 | 99 | 1011.6 |
| 20260507101207 | 65 | 104 | 0.0 | 0.0 | 0.00 | 0.00 | 0.00 | 99 | 1011.7 |
| 20260507100705 | 65 | 104 | 0.0 | 0.0 | 0.00 | 0.00 | 0.00 | 99 | 1011.5 |
| 20260507100203 | 65 | 103 | 0.0 | 0.0 | 0.00 | 0.00 | 0.00 | 99 | 1011.7 |
| 20260507095701 | 65 | 101 | 0.0 | 0.0 | 0.00 | 0.00 | 0.00 | 99 | 1011.6 |
| 20260507095157 | 65 | 99 | 0.0 | 0.0 | 0.00 | 0.00 | 0.00 | 99 | 1011.4 |
| 20260507094653 | 65 | 99 | 0.0 | 0.0 | 0.00 | 0.00 | 0.00 | 99 | 1011.7 |
| 20260507094150 | 65 | 98 | 0.0 | 0.0 | 0.00 | 0.00 | 0.00 | 99 | 1011.4 |
| 20260507093648 | 65 | 98 | 0.0 | 0.0 | 0.00 | 0.00 | 0.00 | 99 | 1011.6 |
| 20260507093146 | 65 | 97 | 0.0 | 0.0 | 0.00 | 0.00 | 0.00 | 99 | 1011.5 |
| 20260507092642 | 65 | 86 | 0.0 | 0.0 | 0.00 | 0.00 | 0.00 | 99 | 1011.7 |
| 20260507092139 | 65 | 84 | 0.0 | 0.0 | 0.00 | 0.00 | 0.00 | 99 | 1011.4 |
| 20260507091636 | 65 | 84 | 0.0 | 0.0 | 0.00 | 0.00 | 0.00 | 99 | 1011.3 |
| 20260507091132 | 65 | 84 | 0.0 | 0.0 | 0.00 | 0.00 | 0.00 | 99 | 1011.5 |
| 20260507090627 | 65 | 84 | 0.0 | 0.0 | 0.00 | 0.00 | 0.00 | 99 | 1011.8 |
| 20260507090125 | 64 | 84 | 0.0 | 0.0 | 0.00 | 0.00 | 0.00 | 99 | 1011.7 |
| 20260507085616 | 64 | 84 | 0.0 | 0.0 | 0.00 | 0.00 | 0.00 | 99 | 1011.6 |
| 20260507085113 | 65 | 82 | 0.0 | 0.0 | 0.00 | 0.00 | 0.00 | 99 | 1011.5 |
| 20260507084609 | 65 | 81 | 0.0 | 0.0 | 0.00 | 0.00 | 0.00 | 99 | 1011.8 |
| 20260507084106 | 64 | 81 | 0.0 | 0.0 | 0.00 | 0.00 | 0.00 | 99 | 1011.7 |
| 20260507083602 | 64 | 71 | 0.0 | 0.0 | 0.00 | 0.00 | 0.00 | 99 | 1012.0 |
| 20260507083100 | 64 | 71 | 0.0 | 0.0 | 0.00 | 0.00 | 0.00 | 99 | 1012.0 |
| 20260507082555 | 64 | 172 | 0.0 | 0.0 | 0.00 | 0.00 | 0.00 | 99 | 1012.0 |
| 20260507082052 | 64 | 157 | 1.0 | 1.0 | 0.00 | 0.00 | 0.00 | 99 | 1012.4 |
| 20260507081548 | 64 | 130 | 1.0 | 1.0 | 0.00 | 0.00 | 0.00 | 99 | 1012.5 |
| 20260507081046 | 64 | 126 | 0.0 | 0.0 | 0.00 | 0.00 | 0.00 | 99 | 1012.5 |
| 20260507080542 | 64 | 126 | 0.0 | 0.0 | 0.00 | 0.00 | 0.00 | 99 | 1012.6 |
| 20260507080039 | 64 | 124 | 0.0 | 0.0 | 0.00 | 0.00 | 0.00 | 99 | 1012.4 |
| 20260507075534 | 64 | 122 | 0.0 | 0.0 | 0.00 | 0.00 | 0.00 | 99 | 1012.3 |
| 20260507075030 | 64 | 117 | 0.0 | 0.0 | 0.00 | 0.00 | 0.00 | 99 | 1012.3 |
| 20260507074526 | 64 | 115 | 0.0 | 0.0 | 0.00 | 0.00 | 0.00 | 99 | 1011.8 |
| 20260507074026 | 64 | 140 | 0.0 | 0.0 | 0.00 | 0.00 | 0.00 | 99 | 1011.6 |
| 20260507073521 | 64 | 140 | 0.0 | 0.0 | 0.00 | 0.00 | 0.00 | 99 | 1012.5 |
| 20260507073018 | 64 | 140 | 0.0 | 0.0 | 0.00 | 0.00 | 0.00 | 99 | 1012.8 |
| 20260507072515 | 64 | 139 | 0.0 | 0.0 | 0.00 | 0.00 | 0.00 | 99 | 1012.7 |
| 20260507072012 | 64 | 136 | 0.0 | 0.0 | 0.00 | 0.00 | 0.00 | 99 | 1012.9 |
| 20260507071509 | 65 | 136 | 0.0 | 0.0 | 0.00 | 0.00 | 0.00 | 99 | 1012.5 |
| 20260507071006 | 65 | 135 | 0.0 | 0.0 | 0.00 | 0.00 | 0.00 | 99 | 1012.6 |
| 20260507070503 | 65 | 135 | 0.0 | 0.0 | 0.00 | 0.00 | 0.00 | 99 | 1012.7 |
| 20260507070000 | 65 | 135 | 0.0 | 0.0 | 0.00 | 0.00 | 0.00 | 99 | 1012.4 |
| 20260507065456 | 65 | 135 | 0.0 | 1.0 | 0.00 | 0.00 | 0.00 | 99 | 1012.7 |
| 20260507064954 | 65 | 135 | 0.0 | 0.0 | 0.00 | 0.00 | 0.00 | 99 | 1012.9 |
| 20260507064452 | 65 | 135 | 0.0 | 0.0 | 0.00 | 0.00 | 0.00 | 99 | 1012.8 |
| 20260507063949 | 65 | 135 | 0.0 | 0.0 | 0.00 | 0.00 | 0.00 | 99 | 1013.0 |
| 20260507063446 | 65 | 135 | 0.0 | 0.0 | 0.00 | 0.00 | 0.00 | 99 | 1012.7 |
| 20260507062943 | 65 | 135 | 0.0 | 0.0 | 0.00 | 0.00 | 0.00 | 99 | 1013.1 |
| 20260507062440 | 65 | 135 | 0.0 | 0.0 | 0.00 | 0.00 | 0.00 | 99 | 1013.3 |
| 20260507061937 | 65 | 135 | 0.0 | 0.0 | 0.00 | 0.00 | 0.00 | 99 | 1013.5 |
| 20260507061435 | 65 | 135 | 0.0 | 0.0 | 0.00 | 0.00 | 0.00 | 99 | 1013.5 |
| 20260507060934 | 65 | 135 | 0.0 | 0.0 | 0.00 | 0.00 | 0.00 | 99 | 1013.4 |
| 20260507060430 | 65 | 135 | 0.0 | 0.0 | 0.00 | 0.00 | 0.00 | 99 | 1013.6 |
| 20260507055927 | 65 | 135 | 0.0 | 0.0 | 0.00 | 0.00 | 0.00 | 99 | 1013.5 |
| 20260507055422 | 65 | 135 | 0.0 | 0.0 | 0.00 | 0.00 | 0.00 | 99 | 1013.7 |
| 20260507054914 | 65 | 135 | 0.0 | 0.0 | 0.00 | 0.00 | 0.00 | 99 | 1013.7 |
| 20260507054410 | 65 | 135 | 0.0 | 0.0 | 0.00 | 0.00 | 0.00 | 99 | 1013.6 |
| 20260507053908 | 65 | 135 | 0.0 | 0.0 | 0.00 | 0.00 | 0.00 | 99 | 1013.3 |
| 20260507053405 | 65 | 135 | 0.0 | 0.0 | 0.00 | 0.00 | 0.00 | 99 | 1013.3 |
| 20260507052904 | 65 | 134 | 0.0 | 0.0 | 0.00 | 0.00 | 0.00 | 99 | 1012.9 |
| 20260507052400 | 65 | 135 | 0.0 | 0.0 | 0.00 | 0.00 | 0.00 | 99 | 1012.5 |
| 20260507051858 | 65 | 134 | 0.0 | 0.0 | 0.00 | 0.00 | 0.00 | 98 | 1012.7 |
| 20260507051355 | 66 | 134 | 0.0 | 0.0 | 0.00 | 0.00 | 0.00 | 98 | 1012.7 |
| 20260507050852 | 66 | 134 | 0.0 | 0.0 | 0.00 | 0.00 | 0.00 | 98 | 1013.0 |
| 20260507050349 | 66 | 128 | 0.0 | 0.0 | 0.00 | 0.00 | 0.00 | 98 | 1012.9 |
| 20260507045845 | 66 | 120 | 0.0 | 0.0 | 0.00 | 0.00 | 0.00 | 98 | 1013.6 |
| 20260507045342 | 66 | 220 | 0.0 | 0.0 | 0.00 | 0.00 | 0.00 | 97 | 1015.3 |
| 20260507044839 | 66 | 359 | 0.0 | 0.0 | 0.00 | 0.00 | 0.00 | 97 | 1015.2 |
| 20260507044335 | 66 | 353 | 0.0 | 0.0 | 0.00 | 0.00 | 0.00 | 97 | 1014.9 |
| 20260507043831 | 66 | 352 | 0.0 | 0.0 | 0.00 | 0.00 | 0.00 | 97 | 1014.9 |
| 20260507043328 | 66 | 321 | 0.0 | 0.0 | 0.00 | 0.00 | 0.00 | 97 | 1015.2 |
| 20260507042825 | 67 | 317 | 0.0 | 0.0 | 0.00 | 0.00 | 0.00 | 96 | 1015.3 |
| 20260507042320 | 67 | 323 | 0.0 | 0.0 | 0.00 | 0.00 | 0.00 | 96 | 1015.2 |
| 20260507041817 | 67 | 280 | 0.0 | 0.0 | 0.00 | 0.00 | 0.00 | 95 | 1014.8 |
| 20260507041314 | 67 | 318 | 1.0 | 2.0 | 0.00 | 0.00 | 0.00 | 95 | 1014.8 |
| 20260507040811 | 67 | 263 | 0.0 | 0.0 | 0.00 | 0.00 | 0.00 | 94 | 1014.6 |
| 20260507040307 | 68 | 197 | 0.0 | 0.0 | 0.00 | 0.00 | 0.00 | 93 | 1014.5 |